Clayton Lake, ME

9:21 PM EST on December 03, 2016 (GMT -0500)
Clayton Lake

Weather History for K40B - November, 2011

Change the Weather History Date:

Wednesday, November 9, 2011

  Actual Average Record
Temperature  
Mean Temperature 44 °F -  
Max Temperature 52 °F 35 °F 53 °F (2015)
Min Temperature 37 °F 21 °F 3 °F (2001)
Degree Days  
Heating Degree Days 21    
Moisture  
Dew Point 36 °F    
Average Humidity 76    
Maximum Humidity 87    
Minimum Humidity 56    
Precipitation  
Precipitation 0.00 in - - ()
Sea Level Pressure  
Sea Level Pressure 30.16 in    
Wind  
Wind Speed 2 mph (North)    
Max Wind Speed 6 mph    
Max Gust Speed -    
Averages and records for this station are not official NWS values.
T = Trace of Precipitation, MM = Missing Value Source: NWS Daily Summary

Daily Weather History Graph

Daily Weather History Graph

Search for Another Location

Airport or City:

Trip Planner

Search our weather history database for the weather conditions in past years. The results will help you decide how hot, cold, wet, or windy it might be!

Date:

Astronomy

Nov. 09, 2011 Rise Set
Actual Time 6:31 AM EST 4:12 PM EST
Civil Twilight 5:58 AM EST 4:44 PM EST
Nautical Twilight 5:22 AM EST 5:20 PM EST
Astronomical Twilight 4:47 AM EST 5:55 PM EST
Moon 3:21 PM EST (11/9) 5:23 AM EST (11/9)
Length of Visible Light 10h 45m
Length of Day
9h 40m
Waxing Gibbous, 99% of the Moon is Illuminated
Nov 9
Waxing Gibbous
Nov 10
Full
Nov 18
Last Quarter
Nov 25
New
Dec 2
First Quarter

Hourly Weather History & Observations

Time (EST) Temp. Windchill Dew Point Humidity Pressure Visibility Wind Dir Wind Speed Gust Speed Precip Events Conditions
12:25 AM 41.4 °F - 37.2 °F 85% 30.22 in - Calm Calm - N/A   Unknown
1:25 AM 41.4 °F - 37.0 °F 85% 30.22 in - Calm Calm - N/A   Unknown
2:25 AM 41.0 °F - 37.4 °F 87% 30.22 in - Calm Calm - N/A   Unknown
3:25 AM 41.0 °F - 37.2 °F 86% 30.23 in - Calm Calm - N/A   Unknown
4:25 AM 41.4 °F - 36.1 °F 82% 30.23 in - Calm Calm - N/A   Unknown
5:25 AM 41.4 °F - 36.3 °F 82% 30.22 in - Calm Calm - N/A   Unknown
6:25 AM 41.2 °F 39.2 °F 36.5 °F 83% 30.22 in - Variable 3.5 mph - N/A   Unknown
7:25 AM 41.5 °F - 35.8 °F 80% 30.24 in - Calm Calm - N/A   Unknown
8:25 AM 42.8 °F 41.1 °F 36.0 °F 77% 30.25 in - Variable 3.5 mph - N/A   Unknown
9:25 AM 44.6 °F 42.2 °F 34.2 °F 67% 30.23 in - Variable 4.6 mph - N/A   Unknown
10:25 AM 45.1 °F 42.0 °F 33.4 °F 64% 30.23 in - Variable 5.8 mph - N/A   Unknown
11:25 AM 46.0 °F 43.1 °F 33.4 °F 61% 30.19 in - Variable 5.8 mph - N/A   Unknown
12:25 PM 48.4 °F - 35.1 °F 60% 30.17 in - Variable 4.6 mph - N/A   Unknown
1:25 PM 49.1 °F - 34.7 °F 58% 30.15 in - Variable 4.6 mph - N/A   Unknown
2:25 PM 51.4 °F - 36.1 °F 56% 30.13 in - Variable 3.5 mph - N/A   Unknown
3:25 PM 47.7 °F - 36.5 °F 65% 30.12 in - Variable 2.3 mph - N/A   Unknown
5:08 PM 44.2 °F - 36.7 °F 75% 30.12 in - Variable 2.3 mph - N/A   Unknown
5:38 PM 43.9 °F 41.3 °F 35.8 °F 73% 30.11 in - Variable 4.6 mph - N/A   Unknown
6:25 PM 41.4 °F 39.4 °F 34.7 °F 77% 30.10 in - Variable 3.5 mph - N/A   Unknown
7:25 PM 42.8 °F 41.1 °F 34.9 °F 74% 30.08 in - Variable 3.5 mph - N/A   Unknown
8:25 PM 39.2 °F - 35.4 °F 86% 30.07 in - Calm Calm - N/A   Unknown
9:25 PM 37.4 °F - 32.9 °F 84% 30.05 in - Calm Calm - N/A   Unknown
10:25 PM 42.6 °F 40.9 °F 37.6 °F 82% 30.03 in - Variable 3.5 mph - N/A   Unknown
11:25 PM 42.3 °F 40.5 °F 38.5 °F 86% 30.02 in - Variable 3.5 mph - N/A   Unknown